Chico, CA

6:58 AM PDT on June 20, 2018 (GMT -0700)
Chico Municipal

Weather History for KCIC - November, 2016

Change the Weather History Date:

Thursday, November 17, 2016

  Actual Average (WUND) Record (WUND)
Temperature  
Mean Temperature 46 °F -  
Max Temperature 59 °F - - (-1)
Min Temperature 33 °F - - (-1)
Degree Days  
Heating Degree Days 19    
Moisture  
Dew Point 34 °F    
Average Humidity 71    
Maximum Humidity 93    
Minimum Humidity 33    
Precipitation  
Precipitation 0.00 in - - ()
Sea Level Pressure  
Sea Level Pressure 30.11 in    
Wind  
Wind Speed 2 mph (NNW)    
Max Wind Speed 8 mph    
Max Gust Speed -    
Visibility 10 miles    
Events      
Averages and records for this station are not official NWS values.
T = Trace of Precipitation, MM = Missing Value Source: NWS Daily Summary

Daily Weather History Graph

Daily Weather History Graph

Search for Another Location

Airport or City:

Astronomy

Nov. 17, 2016 Rise Set
Actual Time 6:55 AM PST 4:49 PM PST
Civil Twilight 6:25 AM PST 5:18 PM PST
Nautical Twilight 5:53 AM PST 5:51 PM PST
Astronomical Twilight 5:21 AM PST 6:23 PM PST
Moon 8:22 PM PST (11/17) 10:06 AM PST (11/17)
Length of Visible Light 10h 52m
Length of Day
9h 54m
Waning Gibbous, 85% of the Moon is Illuminated
Nov 17
Waning Gibbous
Nov 21
Last Quarter
Nov 29
New
Dec 7
First Quarter
Dec 13
Full

Hourly Weather History & Observations

Time (PST) Temp. Windchill Dew Point Humidity Pressure Visibility Wind Dir Wind Speed Gust Speed Precip Events Conditions
12:15 AM 41.0 °F - 35.6 °F 81% 30.12 in 10.0 mi Calm Calm - N/A   Clear
12:35 AM 41.0 °F 39.0 °F 33.8 °F 76% 30.11 in 10.0 mi ENE 3.5 mph - N/A   Clear
12:55 AM 41.0 °F - 33.8 °F 76% 30.10 in 10.0 mi Calm Calm - N/A   Clear
1:15 AM 37.4 °F - 32.0 °F 81% 30.11 in 10.0 mi Calm Calm - N/A   Clear
1:35 AM 37.4 °F - 33.8 °F 87% 30.11 in 10.0 mi Calm Calm - N/A   Clear
1:55 AM 39.2 °F - 33.8 °F 81% 30.12 in 10.0 mi Calm Calm - N/A   Clear
2:15 AM 39.2 °F - 33.8 °F 81% 30.12 in 10.0 mi Calm Calm - N/A   Clear
2:35 AM 39.2 °F - 32.0 °F 75% 30.12 in 10.0 mi Calm Calm - N/A   Clear
2:55 AM 35.6 °F - 32.0 °F 87% 30.12 in 10.0 mi Calm Calm - N/A   Clear
3:15 AM 39.2 °F - 32.0 °F 75% 30.12 in 10.0 mi Calm Calm - N/A   Clear
3:35 AM 37.4 °F - 32.0 °F 81% 30.12 in 10.0 mi Calm Calm - N/A   Clear
3:55 AM 35.6 °F 32.8 °F 32.0 °F 87% 30.13 in 10.0 mi West 3.5 mph - N/A   Clear
4:15 AM 35.6 °F - 32.0 °F 87% 30.13 in 10.0 mi Calm Calm - N/A   Clear
4:35 AM 37.4 °F - 32.0 °F 81% 30.13 in 10.0 mi Calm Calm - N/A   Clear
4:55 AM 37.4 °F - 32.0 °F 81% 30.12 in 10.0 mi Calm Calm - N/A   Clear
5:15 AM 37.4 °F - 32.0 °F 81% 30.12 in 10.0 mi Calm Calm - N/A   Clear
5:35 AM 33.8 °F - 32.0 °F 93% 30.12 in 10.0 mi Calm Calm - N/A   Clear
6:50 AM 37.4 °F 32.8 °F 32.0 °F 81% 30.14 in 10.0 mi Variable 5.8 mph - N/A   Mostly Cloudy
7:47 AM 37.4 °F 32.8 °F 32.0 °F 81% 30.14 in 400.0 mi West 5.8 mph - N/A   Mostly Cloudy
8:47 AM 39.2 °F 35.0 °F 35.6 °F 87% 30.16 in 40.0 mi WNW 5.8 mph - N/A   Mostly Cloudy
9:50 AM 46.4 °F 43.5 °F 39.2 °F 76% 30.16 in 40.0 mi WNW 5.8 mph - N/A   Partly Cloudy
10:49 AM 53.6 °F - 37.4 °F 54% 30.16 in 25.0 mi WNW 8.1 mph - N/A   Clear
11:49 AM 55.4 °F - 33.8 °F 44% 30.14 in 40.0 mi NW 5.8 mph - N/A   Clear
12:47 PM 57.2 °F - 32.0 °F 38% 30.12 in 40.0 mi NW 5.8 mph - N/A   Clear
1:50 PM 59.0 °F - 33.8 °F 39% 30.16 in 25.0 mi NNW 5.8 mph - N/A   Clear
3:47 PM 59.0 °F - 32.0 °F 36% 30.10 in 40.0 mi NW 5.8 mph - N/A   Partly Cloudy
4:58 PM 57.2 °F - 28.4 °F 33% 30.08 in 10.0 mi North 5.8 mph - N/A   Clear
5:55 PM 50.0 °F - 33.8 °F 54% 30.09 in 10.0 mi NNE 5.8 mph - N/A   Clear
6:15 PM 50.0 °F - 33.8 °F 54% 30.09 in 10.0 mi NE 6.9 mph - N/A   Clear
6:35 PM 48.2 °F - 35.6 °F 62% 30.10 in 10.0 mi ENE 3.5 mph - N/A   Clear
6:47 PM 48.2 °F - 35.6 °F 62% 30.10 in 10.0 mi Calm Calm - N/A   Clear
6:55 PM 48.2 °F - 33.8 °F 58% 30.09 in 10.0 mi Calm Calm - N/A   Partly Cloudy
7:15 PM 48.2 °F - 33.8 °F 58% 30.09 in 10.0 mi Calm Calm - N/A   Clear
7:35 PM 48.2 °F - 33.8 °F 58% 30.09 in 10.0 mi NE 4.6 mph - N/A   Partly Cloudy
7:55 PM 48.2 °F - 35.6 °F 62% 30.09 in 9.0 mi NE 6.9 mph - N/A   Partly Cloudy
8:15 PM 46.4 °F 45.2 °F 35.6 °F 66% 30.09 in 10.0 mi East 3.5 mph - N/A   Partly Cloudy
8:35 PM 46.4 °F - 35.6 °F 66% 30.10 in 10.0 mi Calm Calm - N/A   Partly Cloudy
8:55 PM 46.4 °F - 35.6 °F 66% 30.10 in 10.0 mi Calm Calm - N/A   Partly Cloudy
9:15 PM 41.0 °F 39.0 °F 35.6 °F 81% 30.11 in 10.0 mi NW 3.5 mph - N/A   Partly Cloudy
9:35 PM 44.6 °F 43.1 °F 35.6 °F 71% 30.11 in 10.0 mi NW 3.5 mph - N/A   Partly Cloudy
9:55 PM 42.8 °F 41.1 °F 35.6 °F 76% 30.11 in 10.0 mi NW 3.5 mph - N/A   Partly Cloudy
10:15 PM 41.0 °F - 35.6 °F 81% 30.11 in 10.0 mi Calm Calm - N/A   Scattered Clouds
10:35 PM 41.0 °F - 35.6 °F 81% 30.11 in 10.0 mi Calm Calm - N/A   Mostly Cloudy
10:55 PM 41.0 °F - 35.6 °F 81% 30.10 in 10.0 mi Calm Calm - N/A   Mostly Cloudy
11:15 PM 41.0 °F - 33.8 °F 76% 30.11 in 10.0 mi Calm Calm - N/A   Partly Cloudy
11:35 PM 41.0 °F - 35.6 °F 81% 30.11 in 10.0 mi Calm Calm - N/A   Scattered Clouds
11:55 PM 42.8 °F - 33.8 °F 70% 30.12 in 10.0 mi Calm Calm - N/A   Mostly Cloudy